Hourly Data Report for October 11, 2013

All times are specified in Local Standard Time (LST). Add 1 hour to adjust for Daylight Saving Time where and when it is observed.

IQALUIT CLIMATE
NUNAVUT

63°44'50.000" N
68°32'40.000" W
33.50 m
2402592
71321
XFB

Download Data

Hourly Data (October 2013)
Hourly Data Report for October 11, 2013
Temp Definition
°C
Dew Point Temp Definition
°C
Rel Hum Definition
%
Wind Dir Definition
10's deg

Wind Spd Definition
km/h
Visibility Definition
km
Stn Press Definition
kPa
Hmdx Definition


Wind Chill Definition


Weather Definition


TIME
00:00 -5.5 -7.9 83 33 17   102.13   -12 LegendNANA
01:00 -5.6 -8.3 81 36 28   102.17   -14 LegendNANA
02:00 -5.8 -8.2 83 33 19   102.25   -12 LegendNANA
03:00 -6.0 -8.1 85 32 19   102.29   -13 LegendNANA
04:00 -6.0 -8.3 84 33 20   102.34   -13 LegendNANA
05:00 -7.4 -9.6 84 33 13   102.37   -13 LegendNANA
06:00 -8.5 -10.0 89 3 4   102.41   -11 LegendNANA
07:00 -9.5 -11.4 86 35 6   102.46   -13 LegendNANA
08:00 -7.8 -10.2 83 32 11   102.47   -13 LegendNANA
09:00 -5.7 -8.6 80 32 13   102.49   -11 LegendNANA
10:00 -4.7 -8.1 77 34 32   102.47   -13 LegendNANA
11:00 -4.3 -7.4 79 33 19   102.48   -10 LegendNANA
12:00 -4.0 -7.4 77 34 24   102.47   -11 LegendNANA
13:00 -3.3 -6.6 78 32 28   102.47   -11 LegendNANA
14:00 -3.4 -6.6 78 33 30   102.48   -11 LegendNANA
15:00 -3.4 -6.4 80 32 30   102.49   -11 LegendNANA
16:00 -3.3 -5.9 82 33 22   102.52   -10 LegendNANA
17:00 -3.8 -6.2 83 31 22   102.51   -10 LegendNANA
18:00 -4.3 -6.8 83 32 24   102.52   -11 LegendNANA
19:00 -4.6 -6.8 85 33 24   102.54   -12 LegendNANA
20:00 -4.7 -6.9 85 33 19   102.49   -11 LegendNANA
21:00 -4.4 -6.5 85 33 19   102.48   -11 LegendNANA
22:00 -4.2 -6.4 85 32 15   102.43   -10 LegendNANA
23:00 -4.2 -6.2 86 33 13   102.41   -9 LegendNANA

Notes on Data Quality.

Legend

  • E = Estimated
  • M = Missing
  • NA = Not Available
  • ‡ = Partner data that is not subject to review by the National Climate Archives
Date modified: